SARAL (39086 NORAD) Tracking and Keplerian Element Data

This shows tracking and keplerian element data for the satellite.

Feedback or suggestion? Click here.




ElementValue
Catalog39086
NameSARAL
Epoch Orbit31661
Epoch Day77.56727126
Epoch Year2019
RAAN265.1808
Inclination98.5411
Eccentricity0.0001777
Argument of Perigee127.1215
Mean Anonmoly233.0131
Mean Motion14.32033589
Decay Rate-1.5E-07
L11 39086U 13009A 19077.56727126 -.00000015 00000-0 10674-4 0 9998
L22 39086 98.5411 265.1808 0001777 127.1215 233.0131 14.32033589316615

Live tracking and technical data element details for SARAL (NORAD 39086). SARAL can be tracked NOW for your location showing map with azimuth and elevation plus other details from your city location.

Track the satellite on the map from your city or location and see movement details for azimuth, elevation, latitude, longitude, range, height, and movement on the map or in text.







IsCatalogInMostPopularTable: catalog: 39086, numindb: 224
Update: records affected: 1



GetName: 39086 SARAL

Hit Count: updated at: Wed, 20 Mar 2019 05:11:37 GMT